Nashua, NH

5:28 PM EST on December 06, 2016 (GMT -0500)
Boire

Weather History for KASH - July, 2013

Change the Weather History Date:

Tuesday, July 16, 2013

  Actual Average Record
Temperature  
Mean Temperature 80 °F -  
Max Temperature 91 °F 84 °F 97 °F (1968)
Min Temperature 68 °F 59 °F 43 °F (1966)
Cooling Degree Days 14    
Growing Degree Days 30 (Base 50)    
Moisture  
Dew Point 67 °F    
Average Humidity 62    
Maximum Humidity 87    
Minimum Humidity 37    
Precipitation  
Precipitation 0.00 in - - ()
Sea Level Pressure  
Sea Level Pressure 30.83 in    
Wind  
Wind Speed 3 mph (North)    
Max Wind Speed 12 mph    
Max Gust Speed 20 mph    
Visibility 10 miles    
Events      
Averages and records for this station are not official NWS values.
T = Trace of Precipitation, MM = Missing Value Source: NWS Daily Summary

Daily Weather History Graph

Daily Weather History Graph

Search for Another Location

Airport or City:

Trip Planner

Search our weather history database for the weather conditions in past years. The results will help you decide how hot, cold, wet, or windy it might be!

Date:

Astronomy

Jul. 16, 2013 Rise Set
Actual Time 5:22 AM EDT 8:21 PM EDT
Civil Twilight 4:48 AM EDT 8:55 PM EDT
Nautical Twilight 4:05 AM EDT 9:38 PM EDT
Astronomical Twilight 3:14 AM EDT 10:28 PM EDT
Moon 1:56 PM EDT (7/16) No Moon Set
Length of Visible Light 16h 06m
Length of Day
14h 59m
First Quarter, 56% of the Moon is Illuminated
Jul 16
First Quarter
Jul 22
Full
Jul 29
Last Quarter
Aug 6
New
Aug 14
First Quarter

Hourly Weather History & Observations

Time (EDT) Temp. Heat Index Dew Point Humidity Pressure Visibility Wind Dir Wind Speed Gust Speed Precip Events Conditions
12:51 AM 73.9 °F - 66.9 °F 79% 30.86 in 10.0 mi Calm Calm - N/A   Clear
1:51 AM 72.9 °F - 64.9 °F 76% 30.86 in 10.0 mi Calm Calm - N/A   Clear
2:51 AM 70.9 °F - 64.9 °F 81% 30.86 in 10.0 mi Calm Calm - N/A   Clear
3:51 AM 70.0 °F - 64.9 °F 84% 30.85 in 10.0 mi Calm Calm - N/A   Clear
4:51 AM 68.9 °F - 63.9 °F 84% 30.85 in 10.0 mi Calm Calm - N/A   Clear
5:51 AM 68.9 °F - 64.9 °F 87% 30.87 in 10.0 mi Calm Calm - N/A   Clear
6:51 AM 72.9 °F - 65.8 °F 79% 30.87 in 10.0 mi Calm Calm - N/A   Partly Cloudy
7:51 AM 77.0 °F - 65.8 °F 68% 30.89 in 10.0 mi Calm Calm - N/A   Scattered Clouds
8:51 AM 81.0 °F 83.3 °F 66.9 °F 62% 30.89 in 10.0 mi NW 5.8 mph - N/A   Clear
9:51 AM 84.9 °F 88.2 °F 68.0 °F 57% 30.88 in 10.0 mi North 5.8 mph - N/A   Clear
10:51 AM 86.9 °F 90.3 °F 68.0 °F 53% 30.87 in 10.0 mi North 5.8 mph - N/A   Clear
11:51 AM 90.0 °F 92.8 °F 66.9 °F 46% 30.87 in 10.0 mi North 8.1 mph - N/A   Scattered Clouds
12:51 PM 90.9 °F 92.7 °F 64.9 °F 42% 30.86 in 10.0 mi North 9.2 mph - N/A   Clear
1:51 PM 91.9 °F 92.5 °F 61.9 °F 37% 30.85 in 10.0 mi NNW 11.5 mph 18.4 mph N/A   Clear
2:51 PM 91.9 °F 92.9 °F 63.0 °F 38% 30.85 in 10.0 mi North 10.4 mph 19.6 mph N/A   Scattered Clouds
3:51 PM 91.9 °F 94.1 °F 64.9 °F 41% 30.84 in 10.0 mi North 6.9 mph 16.1 mph N/A   Scattered Clouds
4:27 PM 91.4 °F 94.0 °F 66.2 °F 43% 30.12 in 10.0 mi NNW 9.2 mph - N/A   Partly Cloudy
4:51 PM 91.9 °F 95.4 °F 66.9 °F 44% 30.84 in 10.0 mi North 6.9 mph - N/A   Partly Cloudy
5:51 PM 90.0 °F 92.8 °F 66.9 °F 46% 30.84 in 10.0 mi NNW 8.1 mph - N/A   Clear
6:51 PM 88.9 °F 91.8 °F 66.9 °F 48% 30.85 in 10.0 mi NNW 4.6 mph - N/A   Partly Cloudy
7:51 PM 84.9 °F 90.1 °F 70.9 °F 63% 30.86 in 10.0 mi Calm Calm - N/A   Partly Cloudy
8:51 PM 83.8 °F 88.6 °F 70.9 °F 65% 30.87 in 10.0 mi Calm Calm - N/A   Partly Cloudy
9:51 PM 79.0 °F - 70.9 °F 76% 30.88 in 10.0 mi Calm Calm - N/A   Clear
10:51 PM 77.0 °F - 70.0 °F 79% 30.89 in 10.0 mi Calm Calm - N/A   Clear
11:51 PM 75.9 °F - 68.9 °F 79% 30.89 in 10.0 mi Calm Calm - N/A   Clear